Terminal Aerodrome Forecast
Issued by NWS Wichita, KS

Home | Current Version | Previous Version | Graphics & Text | Print | Product List | Glossary On
Versions: 1 2 3 4 5 6 7 8 9 10 11 12 13 14 15 16 17 18 19 20 21 22 23 24 25 26
000
FTUS43 KICT 010532
TAFICT
TAF
KICT 010532Z 0106/0206 19009KT 5SM -RA OVC004
     FM010800 22010KT P6SM -RA SCT008 BKN015
      TEMPO 0108/0112 -RASN
     FM011200 33018G25KT P6SM SCT007 BKN015
     FM011500 33025G33KT P6SM BKN015
     FM011900 33022G30KT P6SM BKN035
     FM020000 33015G22KT P6SM SCT035=

USA.gov is the U.S. government's official web portal to all federal, state and local government web resources and services.